Location: Juzet
(42.9779°N, 0.7597°E)
Time: 08:39:00
(UTC+00:00)

UNK - Pass Details

Date: 14 July 2020
Orbit: 667 x 685 km, 98.1° (Epoch: 04 August)

Event Time Altitude Azimuth Distance (km) Brightness Sun altitude
Exits shadow 01:33:05 45° 147° (SSE) 918 4.1 -22.1°
Maximum altitude 01:34:26 74° 74° (ENE) 706 3.8 -22.0°
Drops below altitude 10° 01:39:04 10° 351° (N) 2,124 7.1 -21.7°
Sets 01:41:19 0° 349° (N) 3,046 8.0 -21.5°
